Regional Weather Roundup
Issued by NWS

Home | Current Version | Previous Version | Graphics & Text | Print | Product List | Glossary On
Versions: 1 2 3 4 5 6 7 8 9 10 11 12 13 14 15 16 17 18 19 20 21 22 23 24 25 26 27 28 29 30 31 32 33 34 35 36 37 38 39 40 41 42 43 44 45 46 47 48 49 50
000
ASUS43 KTOP 261208
RWRKS

WEATHER ROUNDUP FOR KANSAS
NATIONAL WEATHER SERVICE GOODLAND KS
700 AM CDT SUN APR 26 2015

NOTE:  "FAIR" INDICATES FEW OR NO CLOUDS BELOW 12,000 FEET WITH NO
SIGNIFICANT WEATHER AND/OR OBSTRUCTIONS TO VISIBILITY.

KSZ001>006-013>018-027>032-041>047-261300-
NORTHWEST KANSAS

CITY           SKY/WX    TMP DP  RH WIND       PRES   REMARKS
GOODLAND       CLOUDY    44  44 100 E16       29.84S FOG
6HR MIN TEMP:  44; 6HR MAX TEMP:  50; 6HR PCP:  0.01;

HAYS           CLOUDY    46  39  76 E16       29.88R
HILL CITY      CLOUDY    46  44  93 E14       29.90R
6HR MIN TEMP:  46; 6HR MAX TEMP:  49;

RUSSELL        CLOUDY    47  46  97 NE16G23   29.86R
6HR MIN TEMP:  46; 6HR MAX TEMP:  50;

$$

KSZ061>065-074>080-084>089-261300-
SOUTHWEST KANSAS

CITY           SKY/WX    TMP DP  RH WIND       PRES   REMARKS
DODGE CITY     FOG       47  46  97 E17       29.80R VSB 1/2
6HR MIN TEMP:  47; 6HR MAX TEMP:  54;

ELKHART          N/A     53  45  74 E17         N/A
GARDEN CITY    CLOUDY    46  46 100 E17       29.81R FOG
6HR MIN TEMP:  46; 6HR MAX TEMP:  53; 6HR PCP: TRACE;

GREAT BEND     CLOUDY    46  43  87 E20       29.86R
LIBERAL        CLOUDY    52  48  87 E16       29.78R
$$

KSZ066>073-081>083-090>101-261300-
SOUTHEAST KANSAS

CITY           SKY/WX    TMP DP  RH WIND       PRES   REMARKS
CHANUTE        CLOUDY    51  50  96 NE8       29.85R FOG
6HR MIN TEMP:  51; 6HR MAX TEMP:  54; 6HR PCP: TRACE;

COFFEYVILLE    CLOUDY    53  49  86 NE15      29.83R
6HR MIN TEMP:  53; 6HR MAX TEMP:  58;

HUTCHINSON     CLOUDY    49  45  86 NE10      29.85R
6HR MIN TEMP:  49; 6HR MAX TEMP:  54;

MEDICINE LODGE   N/A     49  47  93 E13G20    29.82R
NEWTON         CLOUDY    48  43  81 E10G18    29.87R
PARSONS        CLOUDY    53  50  89 VRB7      29.85R
6HR MIN TEMP:  53; 6HR MAX TEMP:  57;

WICHITA INTL   CLOUDY    51  46  83 NE15      29.83R
6HR MIN TEMP:  50; 6HR MAX TEMP:  55;

WICHITA JABRA  CLOUDY    49  47  93 NE10      29.83R
6HR MIN TEMP:  49; 6HR MAX TEMP:  53;

WICHITA MCCONL CLOUDY    50  47  88 NE13      29.83R
WINFIELD       CLOUDY    51  48  89 NE16G22   29.83R
6HR MIN TEMP:  51; 6HR MAX TEMP:  56;

$$

KSZ007>012-019>026-033>040-048>060-102>105-261300-
NORTHEAST KANSAS

CITY           SKY/WX    TMP DP  RH WIND       PRES   REMARKS
CONCORDIA      CLOUDY    47  45  93 E12       29.90R FOG
6HR MIN TEMP:  47; 6HR MAX TEMP:  48;

EMPORIA        CLOUDY    49  48  97 NE8       29.87R FOG
6HR MIN TEMP:  48; 6HR MAX TEMP:  50;

LAWRENCE       CLOUDY    49  45  86 E6        29.91R
6HR MIN TEMP:  48; 6HR MAX TEMP:  50;

MANHATTAN      CLOUDY    49  47  93 NE10      29.90R FOG
6HR MIN TEMP:  49; 6HR MAX TEMP:  49;

MARYSVILLE     CLOUDY    45  43  93 E13       29.93R
OLATHE IND     CLOUDY    48  45  89 NE13      29.90R
6HR MIN TEMP:  48; 6HR MAX TEMP:  50;

OLATHE EXE     CLOUDY    48  44  86 NE13      29.89R
6HR MIN TEMP:  48; 6HR MAX TEMP:  50;

SALINA         CLOUDY    50  47  89 NE6       29.89R FOG
6HR MIN TEMP:  49; 6HR MAX TEMP:  51;

TOPEKA BILLARD CLOUDY    50  45  83 E8        29.92R
6HR MIN TEMP:  50; 6HR MAX TEMP:  50;

TOPEKA FORBES  CLOUDY    50  45  83 NE7       29.90R
6HR MIN TEMP:  50; 6HR MAX TEMP:  51;

$$


USA.gov is the U.S. government's official web portal to all federal, state and local government web resources and services.